PDT,Max TemperatureF,Mean TemperatureF,Min TemperatureF,Max Dew PointF,MeanDew PointF,Min DewpointF,Max Humidity, Mean Humidity, Min Humidity, Max Sea Level PressureIn, Mean Sea Level PressureIn, Min Sea Level PressureIn, Max VisibilityMiles, Mean VisibilityMiles, Min VisibilityMiles, Max Wind SpeedMPH, Mean Wind SpeedMPH, Max Gust SpeedMPH,PrecipitationIn, CloudCover, Events, WindDirDegrees
2011-10-1,46,42,39,46,44,39,100,99,93,29.99,29.92,29.82,10,1,0,8,4,,0.13,7,Fog-Rain,244
2011-10-2,52,45,39,47,42,39,100,95,80,29.99,29.95,29.90,10,6,0,6,1,,0.03,6,Fog-Rain,209
2011-10-3,48,44,41,45,42,39,100,95,74,29.87,29.85,29.80,10,6,0,7,1,,0.10,8,Fog-Rain,245
2011-10-4,46,42,39,43,40,36,100,96,81,29.80,29.70,29.49,10,4,0,9,1,20,0.11,7,Fog-Rain,175
2011-10-5,42,38,35,40,38,35,100,99,93,29.73,29.53,29.44,10,1,0,8,4,,0.57,8,Fog-Rain,263
2011-10-6,39,37,35,40,38,35,100,100,97,30.06,29.94,29.70,2,0,0,9,7,16,0.09,8,Fog-Rain,255
2011-10-7,43,40,37,43,41,38,100,100,96,30.25,30.11,30.01,1,0,0,14,8,30,0.54,8,Fog-Rain,267
2011-10-8,51,44,37,43,40,34,100,90,66,30.26,30.19,30.12,10,7,0,5,2,,0.00,4,Fog,234
2011-10-9,51,46,42,46,44,42,100,99,83,30.12,29.98,29.83,10,3,0,6,2,,0.07,7,Fog-Rain,235
2011-10-10,46,44,42,45,43,41,100,98,93,29.84,29.65,29.57,10,3,0,15,3,31,0.53,8,Fog-Rain,272
2011-10-11,43,40,37,43,39,37,100,98,92,30.09,29.80,29.61,10,3,0,20,5,37,1.28,8,Fog-Rain,266
2011-10-12,42,37,35,37,36,34,100,96,79,30.25,30.17,30.07,10,5,0,12,6,25,0.22,8,Fog-Rain,283
2011-10-13,48,40,33,36,34,29,100,92,50,30.25,30.17,30.04,10,4,0,7,2,,0.00,5,Fog,236
2011-10-14,39,37,35,39,36,32,100,95,76,30.06,30.03,30.01,10,5,0,7,5,,0.04,8,Fog,60
2011-10-15,,,,,,,,,,,,,,,,,,,,,,
2011-10-16,,,,,,,,,,,,,,,,,,,,,,
2011-10-17,,,,,,,,,,,,,,,,,,,,,,
2011-10-18,,,,,,,,,,,,,,,,,,,,,,
2011-10-19,,,,,,,,,,,,,,,,,,,,,,
2011-10-20,,,,,,,,,,,,,,,,,,,,,,
2011-10-21,46,44,44,45,45,44,100,100,97,30.23,30.20,30.17,9,1,0,13,5,25,0.32,8,Fog-Rain,277
2011-10-22,48,46,44,48,46,44,100,99,93,30.22,30.16,30.12,10,2,0,14,8,30,2.69,8,Fog-Rain,272
2011-10-23,44,38,33,43,37,32,100,93,76,30.20,30.13,30.06,10,6,0,15,8,26,0.01,5,Fog-Rain-Snow,279
2011-10-24,35,32,30,36,33,30,100,98,93,30.38,30.23,30.06,10,2,0,10,7,23,0.09,7,Fog-Snow,267
2011-10-25,43,35,28,32,28,22,100,88,51,30.46,30.37,30.30,10,6,0,6,3,,0.00,3,Fog,236
2011-10-26,39,34,28,36,29,22,100,82,53,30.42,30.24,30.14,10,7,0,13,6,26,0.04,6,Fog,289
2011-10-27,42,34,28,34,29,24,100,90,57,30.31,30.24,30.19,10,5,0,10,6,20,0.01,3,Fog,262
2011-10-28,42,37,32,43,33,26,100,88,60,30.19,30.00,29.89,10,6,0,13,7,29,0.77,7,Fog-Rain,286
2011-10-29,43,39,35,36,34,31,100,92,67,30.31,30.20,30.05,10,7,0,15,8,28,0.01,6,Fog-Rain,275
2011-10-30,48,42,34,46,40,28,100,94,65,30.23,30.09,30.03,10,4,0,18,5,32,0.95,7,Fog-Rain,280
2011-10-31,34,30,28,34,31,28,100,97,87,,,,10,2,0,13,9,26,0.40,7,Fog-Snow,276